Simultaneous Nadir Overpasses (SNOs) Predictions

Prediction of SNOs between GOES-16 and NOAA-19 Satellite Orbit:

Table of predicted SNOs for the next 14.0 days since TLE Epoch: 11/16/2024
Index Date Time (GOES-16) GOES-16 Lat,Lon NOAA-19 Lat,Lon Distance(km) Time Diff (sec)
1 11/16/2024 02:36:51 0.04, -75.17 0.00, -76.16 109.94 80
2 11/17/2024 02:21:40 0.03, -75.17 0.53, -73.10 237.53 80
3 11/19/2024 14:40:40 -0.02, -75.20 0.55, -77.62 275.75 80
4 11/20/2024 14:28:12 -0.02, -75.21 -0.19, -74.60 70.64 80
5 11/21/2024 14:15:44 -0.01, -75.22 -0.86, -71.56 417.15 80
6 11/23/2024 02:49:54 0.01, -75.20 -0.91, -79.12 448.00 80
7 11/24/2024 02:37:27 0.01, -75.21 -0.18, -76.10 100.98 80
8 11/25/2024 02:22:18 0.01, -75.23 0.49, -73.07 246.27 80
9 11/27/2024 14:41:16 -0.00, -75.30 0.53, -77.59 261.85 80
10 11/28/2024 14:28:48 -0.00, -75.31 -0.17, -74.56 86.02 80
11 11/29/2024 14:16:19 0.00, -75.33 -0.88, -71.53 433.96 80
